Location: Berkeley
(37.8716°N, 122.2727°W)
Time: 17:03:39
(UTC-07:00)

Tiangong 2 - Pass Details

Date: 21 February 2019
Orbit: 379 x 390 km, 42.8° (Epoch: 18 March)

Event Time Altitude Azimuth Distance (km) Brightness Sun altitude
Rises 18:28:58 0° 288° (WNW) 2,256 6.3 -7.6°
Reaches altitude 10° 18:31:06 10° 281° (W) 1,399 5.3 -8.0°
Maximum altitude 18:34:04 39° 210° (SSW) 587 2.3 -8.6°
Drops below altitude 10° 18:37:01 10° 140° (SE) 1,387 3.6 -9.1°
Enters shadow 18:38:13 - 134° (SE) 1,859 4.1 -9.4°
